Weather History for Carlsbad, NM

Change the Weather History Date:

Tuesday, November 20, 2012

  Actual Average Record
Temperature  
Mean Temperature 54 °F -  
Max Temperature 71 °F 62 °F 89 °F (1996)
Min Temperature 37 °F 35 °F 20 °F (1987)
Degree Days  
Heating Degree Days 11    
Growing Degree Days 4 (Base 50)    
Moisture  
Dew Point 32 °F    
Average Humidity 52    
Maximum Humidity 79    
Minimum Humidity 17    
Precipitation  
Precipitation 0.00 in - - ()
Sea Level Pressure  
Sea Level Pressure 30.17 in    
Wind  
Wind Speed 5 mph (NW)    
Max Wind Speed 8 mph    
Max Gust Speed -    
Visibility 10 miles    
Events      
Averages and records for this station are not official NWS values.
T = Trace of Precipitation, MM = Missing Value Source: NWS Daily Summary

Daily Weather History Graph

Daily Weather History Graph

Search for Another Location

Airport:

Trip Planner

Search our weather history database for the weather conditions in past years. The results will help you decide how hot, cold, wet, or windy it might be!

Date:

Astronomy

Nov. 20, 2012 Rise Set
Actual Time 6:31 AM MST 4:54 PM MST
Civil Twilight 6:05 AM MST 5:20 PM MST
Nautical Twilight 5:35 AM MST 5:50 PM MST
Astronomical Twilight 5:05 AM MST 6:19 PM MST
Moon 12:18 PM MST (11/20) No Moon Set
Length of Visible Light 11h 15m
Length of Day
10h 22m
First Quarter, 52% of the Moon is Illuminated
Nov 20
First Quarter
Nov 28
Full
Dec 6
Last Quarter
Dec 13
New
Dec 19
First Quarter

Hourly Weather History & Observations

Time (MST) Temp. Windchill Dew Point Humidity Pressure Visibility Wind Dir Wind Speed Gust Speed Precip Events Conditions
12:53 AM 44.6 °F 41.4 °F 35.6 °F 71% 30.23 in 10.0 mi WNW 5.8 mph - N/A   Clear
1:53 AM 43.0 °F 38.8 °F 35.1 °F 74% 30.15 in 10.0 mi NNW 6.9 mph - N/A   Clear
2:53 AM 41.0 °F 37.1 °F 34.0 °F 76% 30.15 in 10.0 mi WNW 5.8 mph - N/A   Clear
3:53 AM 39.9 °F 35.8 °F 34.0 °F 79% 30.15 in 10.0 mi NW 5.8 mph - N/A   Clear
4:53 AM 39.9 °F 35.8 °F 33.1 °F 77% 30.17 in 10.0 mi WNW 5.8 mph - N/A   Clear
5:53 AM 37.9 °F 35.5 °F 32.0 °F 79% 30.20 in 10.0 mi NNW 3.5 mph - N/A   Clear
6:53 AM 39.0 °F 34.8 °F 30.9 °F 73% 30.24 in 10.0 mi NW 5.8 mph - N/A   Clear
7:53 AM 46.0 °F 43.9 °F 33.1 °F 61% 30.24 in 10.0 mi North 4.6 mph - N/A   Clear
8:53 AM 54.0 °F - 28.0 °F 37% 30.24 in 10.0 mi NW 8.1 mph - N/A   Clear
9:53 AM 59.0 °F - 27.0 °F 29% 30.24 in 10.0 mi NNW 5.8 mph - N/A   Clear
10:53 AM 63.0 °F - 27.0 °F 26% 30.21 in 10.0 mi North 6.9 mph - N/A   Clear
11:53 AM 68.0 °F - 26.1 °F 21% 30.17 in 5.0 mi North 5.8 mph - N/A   Haze
12:53 PM 70.0 °F - 26.1 °F 19% 30.13 in 10.0 mi NE 4.6 mph - N/A   Clear
1:53 PM 71.1 °F - 24.1 °F 17% 30.11 in 10.0 mi ESE 6.9 mph - N/A   Clear
2:53 PM 71.1 °F - 24.1 °F 17% 30.10 in 10.0 mi ESE 4.6 mph - N/A   Clear
3:53 PM 70.0 °F - 26.1 °F 19% 30.11 in 10.0 mi Calm Calm - N/A   Clear
4:53 PM 64.0 °F - 30.0 °F 28% 30.12 in 10.0 mi East 5.8 mph - N/A   Clear
5:53 PM 52.0 °F - 37.0 °F 57% 30.15 in 10.0 mi SSE 3.5 mph - N/A   Clear
6:53 PM 50.0 °F - 37.0 °F 61% 30.17 in 10.0 mi WSW 3.5 mph - N/A   Clear
7:53 PM 48.9 °F - 37.0 °F 64% 30.16 in 10.0 mi WSW 5.8 mph - N/A   Clear
8:53 PM 46.9 °F - 37.0 °F 68% 30.16 in 10.0 mi WSW 4.6 mph - N/A   Clear
9:53 PM 48.0 °F - 37.9 °F 68% 30.14 in 10.0 mi West 6.9 mph - N/A   Clear
10:53 PM 50.0 °F - 37.0 °F 61% 30.14 in 10.0 mi West 3.5 mph - N/A   Clear
11:53 PM 51.1 °F - 36.0 °F 56% 30.12 in 10.0 mi North 3.5 mph - N/A   Clear